Location: Sternwarte Zollern-Alb
(48.2880°N, 8.6780°E)
Time: 03:48:43
(UTC+02:00)

ISS - Pass Details

Date: 28 April 2026
Orbit: 414 x 424 km, 51.6° (Epoch: 19 May)

Event Time Altitude Azimuth Distance (km) Brightness Sun altitude
Exits shadow 04:00:55 53° 276° (W) 522 -3.6 -18.4°
Maximum altitude 04:01:34 73° 341° (NNW) 442 -3.7 -18.3°
Drops below altitude 10° 04:04:56 10° 67° (ENE) 1,503 0.0 -18.0°
Sets 04:07:03 0° 69° (ENE) 2,371 1.2 -17.7°
